• In Deutschland
  • Länderverzeichnis
  • Für 7 Tage
  • Wassertemperatur
  • Satellitenkarten
  • Wetterkarte
  • Widgets
  • user-avatar
    Anmelden

    Stündliche Wetter Necropolis of Thebes

    Heute, 24 Oktober, Mittwoch

    Zeit Temperatur Niederschläge Wind Luftdruck Luftfeuchtigkeit
    00:00 +30°C° 0 mm 1 m/S 746 mmHg 21%
    01:00 +30°C° 0 mm 1 m/S 746 mmHg 22%
    02:00 +29°C° 0 mm 1 m/S 746 mmHg 24%
    03:00 +28°C° 0 mm 1 m/S 745 mmHg 25%
    04:00 +28°C° 0 mm 1 m/S 745 mmHg 26%
    05:00 +27°C° 0 mm 1 m/S 745 mmHg 28%
    06:00 +29°C° 0 mm 1 m/S 746 mmHg 25%
    07:00 +31°C° 0 mm 1 m/S 746 mmHg 23%
    08:00 +32°C° 0 mm 1 m/S 746 mmHg 21%
    09:00 +34°C° 0 mm 1 m/S 746 mmHg 19%
    10:00 +36°C° 0 mm 1 m/S 746 mmHg 16%
    11:00 +37°C° 0 mm 1 m/S 746 mmHg 14%
    12:00 +39°C° 0 mm 2 m/S 745 mmHg 12%
    13:00 +40°C° 0 mm 3 m/S 745 mmHg 11%
    14:00 +42°C° 0 mm 3 m/S 744 mmHg 10%
    15:00 +40°C° 0 mm 3 m/S 744 mmHg 11%
    16:00 +39°C° 0 mm 3 m/S 744 mmHg 11%
    17:00 +38°C° 0 mm 3 m/S 743 mmHg 12%
    18:00 +37°C° 0 mm 2 m/S 744 mmHg 13%
    19:00 +36°C° 0 mm 2 m/S 744 mmHg 15%
    20:00 +35°C° 0 mm 2 m/S 745 mmHg 16%
    21:00 +34°C° 0 mm 2 m/S 745 mmHg 17%
    22:00 +32°C° 0 mm 1 m/S 745 mmHg 19%
    23:00 +31°C° 0 mm 1 m/S 745 mmHg 20%

    Morgen, 25 Oktober, Donnerstag

    Zeit Temperatur Niederschläge Wind Luftdruck Luftfeuchtigkeit
    00:00 +30°C° 0 mm 1 m/S 745 mmHg 21%
    01:00 +28°C° 0 mm 0 m/S 744 mmHg 22%
    02:00 +27°C° 0 mm 0 m/S 744 mmHg 23%
    03:00 +29°C° 0 mm 1 m/S 744 mmHg 23%
    04:00 +29°C° 0 mm 1 m/S 744 mmHg 23%
    05:00 +29°C° 0 mm 1 m/S 744 mmHg 23%
    06:00 +30°C° 0 mm 2 m/S 744 mmHg 21%
    07:00 +32°C° 0 mm 2 m/S 745 mmHg 19%
    08:00 +35°C° 0 mm 2 m/S 746 mmHg 16%
    09:00 +36°C° 0 mm 3 m/S 745 mmHg 15%
    10:00 +37°C° 0 mm 3 m/S 745 mmHg 14%
    11:00 +38°C° 0 mm 4 m/S 745 mmHg 13%
    12:00 +40°C° 0 mm 5 m/S 745 mmHg 14%
    13:00 +40°C° 0 mm 6 m/S 744 mmHg 15%
    14:00 +40°C° 0 mm 7 m/S 744 mmHg 15%
    15:00 +39°C° 0 mm 7 m/S 744 mmHg 18%
    16:00 +38°C° 0 mm 7 m/S 744 mmHg 20%
    17:00 +35°C° 0 mm 7 m/S 744 mmHg 22%
    18:00 +34°C° 0 mm 6 m/S 745 mmHg 23%
    19:00 +33°C° 0 mm 6 m/S 746 mmHg 23%
    20:00 +32°C° 0 mm 6 m/S 747 mmHg 23%
    21:00 +32°C° 0 mm 5 m/S 747 mmHg 23%
    22:00 +30°C° 0 mm 5 m/S 747 mmHg 23%
    23:00 +30°C° 0 mm 4 m/S 747 mmHg 23%

    übermorgen, 26 Oktober, Freitag

    Zeit Temperatur Niederschläge Wind Luftdruck Luftfeuchtigkeit
    00:00 +29°C° 0 mm 4 m/S 747 mmHg 25%
    01:00 +28°C° 0 mm 3 m/S 747 mmHg 26%
    02:00 +27°C° 0 mm 3 m/S 747 mmHg 28%
    03:00 +27°C° 0 mm 3 m/S 747 mmHg 30%
    04:00 +26°C° 0 mm 3 m/S 747 mmHg 33%
    05:00 +25°C° 0 mm 3 m/S 747 mmHg 35%
    06:00 +26°C° 0 mm 3 m/S 748 mmHg 34%
    07:00 +27°C° 0 mm 4 m/S 749 mmHg 34%
    08:00 +27°C° 0 mm 4 m/S 749 mmHg 33%
    09:00 +29°C° 0 mm 4 m/S 749 mmHg 31%
    10:00 +30°C° 0 mm 4 m/S 749 mmHg 28%
    11:00 +32°C° 0 mm 4 m/S 749 mmHg 25%
    12:00 +33°C° 0 mm 4 m/S 749 mmHg 24%
    13:00 +33°C° 0 mm 4 m/S 748 mmHg 23%
    14:00 +34°C° 0 mm 5 m/S 748 mmHg 22%
    15:00 +34°C° 0 mm 5 m/S 748 mmHg 23%
    16:00 +33°C° 0 mm 5 m/S 748 mmHg 25%
    17:00 +33°C° 0 mm 5 m/S 748 mmHg 26%
    18:00 +30°C° 0 mm 5 m/S 749 mmHg 29%
    19:00 +29°C° 0 mm 5 m/S 749 mmHg 31%
    20:00 +28°C° 0 mm 5 m/S 750 mmHg 33%
    21:00 +28°C° 0 mm 5 m/S 750 mmHg 34%
    22:00 +27°C° 0 mm 4 m/S 750 mmHg 34%
    23:00 +26°C° 0 mm 4 m/S 750 mmHg 35%

    27 Oktober, Samstag

    Zeit Temperatur Niederschläge Wind Luftdruck Luftfeuchtigkeit
    00:00 +26°C° 0 mm 4 m/S 750 mmHg 35%
    01:00 +25°C° 0 mm 3 m/S 750 mmHg 34%
    02:00 +25°C° 0 mm 3 m/S 749 mmHg 34%
    03:00 +24°C° 0 mm 3 m/S 750 mmHg 35%
    04:00 +24°C° 0 mm 3 m/S 750 mmHg 35%
    05:00 +22°C° 0 mm 3 m/S 750 mmHg 36%
    06:00 +24°C° 0 mm 3 m/S 750 mmHg 34%
    07:00 +25°C° 0 mm 3 m/S 751 mmHg 32%
    08:00 +25°C° 0 mm 3 m/S 751 mmHg 31%
    09:00 +27°C° 0 mm 3 m/S 751 mmHg 28%
    10:00 +28°C° 0 mm 3 m/S 751 mmHg 25%
    11:00 +30°C° 0 mm 3 m/S 750 mmHg 23%
    12:00 +31°C° 0 mm 3 m/S 750 mmHg 21%
    13:00 +32°C° 0 mm 4 m/S 749 mmHg 18%
    14:00 +33°C° 0 mm 4 m/S 748 mmHg 16%
    15:00 +33°C° 0 mm 4 m/S 748 mmHg 16%
    16:00 +32°C° 0 mm 4 m/S 748 mmHg 16%
    17:00 +32°C° 0 mm 4 m/S 748 mmHg 16%
    18:00 +30°C° 0 mm 4 m/S 749 mmHg 17%
    19:00 +28°C° 0 mm 4 m/S 749 mmHg 18%
    20:00 +27°C° 0 mm 4 m/S 749 mmHg 19%
    21:00 +27°C° 0 mm 3 m/S 749 mmHg 21%
    22:00 +26°C° 0 mm 3 m/S 749 mmHg 23%
    23:00 +25°C° 0 mm 3 m/S 749 mmHg 25%

    28 Oktober, Sonntag

    Zeit Temperatur Niederschläge Wind Luftdruck Luftfeuchtigkeit
    00:00 +24°C° 0 mm 2 m/S 749 mmHg 26%
    01:00 +24°C° 0 mm 2 m/S 748 mmHg 28%
    02:00 +23°C° 0 mm 2 m/S 748 mmHg 29%
    03:00 +23°C° 0 mm 2 m/S 748 mmHg 30%
    04:00 +21°C° 0 mm 2 m/S 748 mmHg 31%
    05:00 +21°C° 0 mm 2 m/S 748 mmHg 32%
    06:00 +23°C° 0 mm 2 m/S 749 mmHg 30%
    07:00 +24°C° 0 mm 2 m/S 749 mmHg 28%
    08:00 +25°C° 0 mm 2 m/S 749 mmHg 26%
    09:00 +27°C° 0 mm 2 m/S 749 mmHg 23%
    10:00 +29°C° 0 mm 2 m/S 749 mmHg 21%
    11:00 +30°C° 0 mm 2 m/S 749 mmHg 18%
    12:00 +31°C° 0 mm 2 m/S 748 mmHg 17%
    13:00 +32°C° 0 mm 2 m/S 747 mmHg 15%
    14:00 +34°C° 0 mm 2 m/S 747 mmHg 14%
    15:00 +33°C° 0 mm 3 m/S 747 mmHg 14%
    16:00 +33°C° 0 mm 3 m/S 747 mmHg 14%
    17:00 +31°C° 0 mm 3 m/S 747 mmHg 15%
    18:00 +30°C° 0 mm 3 m/S 747 mmHg 16%
    19:00 +29°C° 0 mm 3 m/S 748 mmHg 18%
    20:00 +28°C° 0 mm 3 m/S 748 mmHg 19%
    21:00 +27°C° 0 mm 3 m/S 748 mmHg 21%
    22:00 +26°C° 0 mm 3 m/S 748 mmHg 22%
    23:00 +25°C° 0 mm 3 m/S 747 mmHg 24%

    29 Oktober, Montag

    Zeit Temperatur Niederschläge Wind Luftdruck Luftfeuchtigkeit
    00:00 +25°C° 0 mm 2 m/S 747 mmHg 25%
    01:00 +24°C° 0 mm 2 m/S 747 mmHg 27%
    02:00 +23°C° 0 mm 2 m/S 746 mmHg 28%
    03:00 +23°C° 0 mm 2 m/S 747 mmHg 29%
    04:00 +23°C° 0 mm 1 m/S 747 mmHg 30%
    05:00 +22°C° 0 mm 1 m/S 747 mmHg 31%
    06:00 +24°C° 0 mm 1 m/S 747 mmHg 29%
    07:00 +25°C° 0 mm 1 m/S 748 mmHg 27%
    08:00 +26°C° 0 mm 2 m/S 748 mmHg 25%
    09:00 +28°C° 0 mm 1 m/S 748 mmHg 23%
    10:00 +29°C° 0 mm 1 m/S 748 mmHg 21%
    11:00 +31°C° 0 mm 1 m/S 747 mmHg 19%
    12:00 +32°C° 0 mm 1 m/S 747 mmHg 18%
    13:00 +33°C° 0 mm 1 m/S 746 mmHg 17%
    14:00 +34°C° 0 mm 1 m/S 746 mmHg 16%
    15:00 +33°C° 0 mm 1 m/S 746 mmHg 16%
    16:00 +32°C° 0 mm 2 m/S 746 mmHg 17%
    17:00 +32°C° 0 mm 2 m/S 746 mmHg 18%
    18:00 +31°C° 0 mm 2 m/S 746 mmHg 19%
    19:00 +30°C° 0 mm 2 m/S 746 mmHg 20%
    20:00 +29°C° 0 mm 2 m/S 746 mmHg 21%
    21:00 +29°C° 0 mm 2 m/S 746 mmHg 23%
    22:00 +28°C° 0 mm 2 m/S 746 mmHg 24%
    23:00 +27°C° 0 mm 2 m/S 746 mmHg 26%
    Mehr zeigen